Hourly Weather Roundup
Issued by NWS Central Illinois

Home | Current Version | Previous Version | Text Only | Print | Product List | Glossary On
Versions: 1 2 3 4 5 6 7 8 9 10 11 12 13 14 15 16 17 18 19 20 21 22 23 24 25 26 27 28 29 30 31 32 33 34 35 36 37 38 39 40 41 42 43 44 45 46 47 48 49 50
000
NZUS43 KILX 161810
HWRILX

AREA WEATHER ROUNDUP
NATIONAL WEATHER SERVICE, LINCOLN IL
100 PM CDT WED APR 16 2014


CITY           SKY/WX    TMP DP  RH WIND       PRES   REMARKS
BLOOMINGTON    FAIR      50  28  42 S26G32    30.22F
CHAMPAIGN      SUNNY     50  29  44 SE17G26   30.26F
6HR MIN TEMP:  31; 6HR MAX TEMP:  51;

DANVILLE       SUNNY     47  26  43 S10G24    30.26F
6HR MIN TEMP:  29; 6HR MAX TEMP:  47;

DECATUR        FAIR      51  30  44 S21       30.24F
6HR MIN TEMP:  33; 6HR MAX TEMP:  51;

FLORA          NOT AVBL
GALESBURG      FAIR      53  31  43 SE20G31   30.11F
JACKSONVILLE   FAIR      54  29  38 SE21G26   30.18F
6HR MIN TEMP:  37; 6HR MAX TEMP:  54;

LACON          FAIR      51  30  44 S22G33    30.17F
6HR MIN TEMP:  32; 6HR MAX TEMP:  51;

LAWRENCEVILLE  MOSUNNY   49  27  42 SE16      30.32F
6HR MIN TEMP:  33; 6HR MAX TEMP:  50;

LITCHFIELD     NOT AVBL
$$


CITY           SKY/WX    TMP DP  RH WIND       PRES   REMARKS
LINCOLN        FAIR      51  29  43 S18G28    30.22F
6HR MIN TEMP:  33; 6HR MAX TEMP:  51;

MACOMB         FAIR      54  30  40 S25G33    30.14F
MATTOON        FAIR      49  28  44 SE14G23   30.26F
6HR MIN TEMP:  32; 6HR MAX TEMP:  49;

MT CARMEL AP   SUNNY     50  27  40 SE15      30.31F
OLNEY-NOBLE AP NOT AVBL
PARIS          NOT AVBL
PEORIA         FAIR      53  28  38 S20G32    30.16F
6HR MIN TEMP:  36; 6HR MAX TEMP:  53;

PONTIAC        NOT AVBL
RANTOUL        SUNNY     49  28  44 SE18      30.27F
6HR MIN TEMP:  32; 6HR MAX TEMP:  49;

ROBINSON       SUNNY     49  29  45 SE14      30.32F
6HR MIN TEMP:  34; 6HR MAX TEMP:  49;

SPRINGFIELD    FAIR      54  28  36 SE24G31   30.21F
6HR MIN TEMP:  36; 6HR MAX TEMP:  54;

TAYLORVILLE    NOT AVBL
$$

...REGIONAL REPORTS...


CITY           SKY/WX    TMP DP  RH WIND       PRES   REMARKS
CHICAGO O`HARE CLOUDY    48  25  40 S21G30    30.23F
KANKAKEE       NOT AVBL
MOLINE         FAIR      55  26  32 S23G32    30.08F
MOUNT VERNON   FAIR      52  27  37 SE13G20   30.28F
PITTSFIELD     FAIR      55  26  33 S25G31    30.14F
QUINCY         FAIR      54  29  38 S21       30.10F
ROCKFORD       CLOUDY    49  28  44 S29G37    30.18F
$$


CITY           SKY/WX    TMP DP  RH WIND       PRES   REMARKS
BURLINGTON     FAIR      56  30  37 S23G35    30.06F
CEDAR RAPIDS   FAIR      56  31  38 SE23G37   29.96F
DES MOINES     CLOUDY    63  30  28 S32G40    29.83F
KIRKSVILLE     FAIR      61  29  29 S30G39    30.00F
OTTUMWA        FAIR      60  32  34 S26G44    29.93F
ST LOUIS       PTSUNNY   54  25  32 SE21G26   30.21F
$$


CITY           SKY/WX    TMP DP  RH WIND       PRES   REMARKS
TERRE HAUTE    SUNNY     48  25  40 SE15G21   30.31F
EVANSVILLE     MOSUNNY   49  25  39 E12       30.32F
INDIANAPOLIS   MOSUNNY   45  22  40 SE12G22   30.33F
LAFAYETTE      SUNNY     46  22  38 SE15G22   30.32F
MADISON        PTSUNNY   47  26  44 S26G38    30.13F
MILWAUKEE      PTSUNNY   43  29  57 SE22G28   30.25F WCI  34
$$





USA.gov is the U.S. government's official web portal to all federal, state and local government web resources and services.